Погода в Завьяловке

Россия / Оренбургская область     53°35′42″N   52°34′17″E
темп.,
°C
ветер,
м/с
пор.,
м/с
влажн.,
%
обл.,
%
осадки,
мм/ч
давл.,
гПа
погр.,
м
17 апреля, сб
сб1723:00+13св613707 0.0 1021276
02:00+10св499122 0.0 1021246
05:00+8св499446 0.0 1022182
08:00+8св48876 0.0 1023236
11:00+13св56645 0.0 1022565
14:00+17св55535 0.0 1022978
17:00+18св55485 0.0 10211457
20:00+14св59620 0.0 1021249
18 апреля, вс
вс1823:00+10св511590 0.0 1021261
02:00+8св410630 0.0 1021221
05:00+6всв38640 0.0 1022193
08:00+6св510600 0.0 1022307
11:00+11всв674222 0.0 1022695
14:00+14всв663583 0.0 10211087
17:00+14всв6633100 0.0 10211339
20:00+11св5104896 0.0 1021327
19 апреля, пн
пн1923:00+8всв8136278 0.0 1023561
02:00+6св71269100 0.0 1023485
05:00+4всв61178100 0.0 1024495
08:00+4в71175100 0.6 1025662
11:00+5в81059100 0.6 1026939
14:00+4вюв81072100 0.3 1028977
17:00+3в7118995 1.0 1029825
20:00+4вюв5118175 0.1 1029595
20 апреля, вт
вт2023:00+3в4107358 0.1 1030364
02:00+1в513655 0.0 1031424
05:000вюв613602 0.0 1032460
08:000вюв713540 0.0 1033619
11:00+4вюв89360 0.0 1033981
14:00+8вюв79290 0.0 10321287
17:00+9вюв79282 0.0 10301346
20:00+7вюв4838100 0.0 1031229
21 апреля, ср
ср2123:00+4юв51348100 0.0 1031321
02:00+3вюв5125180 0.0 1032301
05:00+1юв51355100 0.0 1032315
08:00+2юв61452100 0.0 1032506
11:00+7юв81135100 0.0 1031799
14:00+11ююв81027100 0.0 10291134
17:00+12ююв7930100 0.0 10291244
20:00+10ююв4842100 0.0 1030275